Location: Vihti�l�
(61.3833°N, 23.0667°E)
Time: 04:23:35
(UTC+00:00)

NOSS 3-1 (C) - Pass Details

Date: 29 November 2020
Orbit: 738 x 1470 km, 63.4° (Epoch: 18 January)

Event Time Altitude Azimuth Distance (km) Brightness Sun altitude
Exits shadow 05:54:55 - 298° (WNW) 2,973 5.3 -7.8°
Reaches altitude 10° 05:55:06 10° 297° (WNW) 2,912 5.3 -7.8°
Maximum altitude 06:01:52 53° 224° (SW) 1,465 4.4 -7.1°
Drops below altitude 10° 06:09:49 10° 151° (SSE) 3,406 7.5 -6.3°
Sets 06:12:57 0° 147° (SSE) 4,452 8.4 -6.0°
